Weather History for KOGA - October, 2012

Change the Weather History Date:

Thursday, October 25, 2012

  Actual Average Record
Temperature  
Mean Temperature 32 °F -  
Max Temperature 39 °F 62 °F 85 °F (1959)
Min Temperature 24 °F 31 °F 14 °F (1962)
Degree Days  
Heating Degree Days 34    
Moisture  
Dew Point 27 °F    
Average Humidity 80    
Maximum Humidity 93    
Minimum Humidity 64    
Precipitation  
Precipitation 0.05 in - - ()
Sea Level Pressure  
Sea Level Pressure 30.20 in    
Wind  
Wind Speed 15 mph (NNW)    
Max Wind Speed 26 mph    
Max Gust Speed 33 mph    
Visibility 8 miles    
Events Snow    
Averages and records for this station are not official NWS values.
T = Trace of Precipitation, MM = Missing Value Source: NWS Daily Summary

Daily Weather History Graph

Daily Weather History Graph

Search for Another Location

Airport or City:

Trip Planner

Search our weather history database for the weather conditions in past years. The results will help you decide how hot, cold, wet, or windy it might be!

Date:

Astronomy

Oct. 25, 2012 Rise Set
Actual Time 7:10 AM MDT 5:50 PM MDT
Civil Twilight 6:42 AM MDT 6:19 PM MDT
Nautical Twilight 6:10 AM MDT 6:51 PM MDT
Astronomical Twilight 5:38 AM MDT 7:23 PM MDT
Moon 3:39 PM MDT (10/25) 3:07 AM MDT (10/25)
Length of Visible Light 11h 36m
Length of Day
10h 40m
Waxing Gibbous, 85% of the Moon is Illuminated
Oct 25
Waxing Gibbous
Oct 29
Full
Nov 6
Last Quarter
Nov 13
New
Nov 20
First Quarter

Hourly Weather History & Observations

Time (MDT) Temp. Windchill Dew Point Humidity Pressure Visibility Wind Dir Wind Speed Gust Speed Precip Events Conditions
12:15 AM 33.4 °F 20.8 °F 31.6 °F 93% 29.99 in 0.8 mi North 24.2 mph 31.1 mph 0.01 in Snow Snow
12:35 AM 33.3 °F 20.6 °F 31.5 °F 93% 29.99 in 1.0 mi North 24.2 mph 29.9 mph 0.01 in Snow Snow
12:55 AM 33.3 °F 20.9 °F 31.3 °F 92% 30.01 in 1.0 mi North 23.0 mph 28.8 mph 0.01 in Snow Snow
1:35 AM 33.1 °F 21.2 °F 31.1 °F 92% 30.02 in 1.2 mi North 20.7 mph 26.5 mph 0.01 in Snow Light Snow
1:55 AM 33.1 °F 22.6 °F 31.1 °F 92% 30.04 in 1.2 mi North 16.1 mph 20.7 mph 0.02 in Snow Light Snow
2:15 AM 33.1 °F 21.9 °F 31.1 °F 92% 30.05 in 2.5 mi North 18.4 mph - N/A Snow Light Snow
2:35 AM 33.3 °F 21.5 °F 30.9 °F 91% 30.05 in 2.5 mi North 20.7 mph 25.3 mph 0.01 in Snow Light Snow
2:55 AM 32.9 °F 21.3 °F 30.9 °F 92% 30.06 in 2.0 mi North 19.6 mph 24.2 mph 0.02 in Snow Light Snow
3:15 AM 32.2 °F 18.6 °F 30.0 °F 92% 30.06 in 2.0 mi North 26.5 mph 29.9 mph N/A Snow Light Snow
3:35 AM 32.0 °F 18.4 °F 29.7 °F 91% 30.06 in 1.8 mi North 26.5 mph 33.4 mph N/A Snow Light Snow
3:55 AM 32.0 °F 18.4 °F 29.3 °F 90% 30.07 in 2.0 mi North 26.5 mph 32.2 mph N/A Snow Light Snow
4:15 AM 32.0 °F 19.2 °F 29.3 °F 90% 30.08 in 2.5 mi North 23.0 mph 31.1 mph N/A Snow Light Snow
4:35 AM 32.2 °F 19.7 °F 29.5 °F 90% 30.08 in 3.0 mi North 21.9 mph 32.2 mph N/A Snow Light Snow
4:55 AM 32.4 °F 19.7 °F 29.3 °F 88% 30.10 in 3.0 mi NNW 23.0 mph - N/A Snow Light Snow
5:55 AM 33.3 °F 22.8 °F 27.5 °F 79% 30.13 in 10.0 mi North 16.1 mph - N/A   Overcast
6:15 AM 33.1 °F 22.2 °F 27.1 °F 79% 30.14 in 10.0 mi NNW 17.3 mph - N/A   Mostly Cloudy
6:35 AM 32.7 °F 22.1 °F 26.6 °F 78% 30.15 in 10.0 mi NNW 16.1 mph 24.2 mph N/A   Scattered Clouds
6:55 AM 32.2 °F 21.4 °F 26.6 °F 80% 30.16 in 10.0 mi NNW 16.1 mph 20.7 mph N/A   Clear
7:35 AM 31.1 °F 22.4 °F 26.4 °F 83% 30.18 in 10.0 mi NNW 10.4 mph - N/A   Clear
7:55 AM 30.7 °F 23.3 °F 26.2 °F 83% 30.19 in 10.0 mi NW 8.1 mph - N/A   Clear
8:15 AM 30.6 °F 21.2 °F 26.2 °F 84% 30.19 in 10.0 mi NNW 11.5 mph - N/A   Clear
8:55 AM 31.8 °F 22.8 °F 26.8 °F 82% 30.20 in 10.0 mi NW 11.5 mph - N/A   Clear
9:55 AM 33.3 °F 24.6 °F 27.0 °F 78% 30.22 in 10.0 mi NNW 11.5 mph 16.1 mph N/A   Clear
10:15 AM 33.8 °F 25.8 °F 26.6 °F 75% 30.22 in 10.0 mi NW 10.4 mph - N/A   Clear
10:35 AM 34.0 °F 26.6 °F 26.4 °F 74% 30.22 in 10.0 mi NW 9.2 mph 17.3 mph N/A   Clear
10:55 AM 34.7 °F 26.9 °F 26.6 °F 72% 30.22 in 10.0 mi NNW 10.4 mph - N/A   Clear
11:15 AM 35.1 °F 27.4 °F 26.2 °F 70% 30.22 in 10.0 mi NNW 10.4 mph - N/A   Clear
11:35 AM 35.2 °F 27.1 °F 26.4 °F 70% 30.22 in 10.0 mi NNW 11.5 mph - N/A   Clear
11:55 AM 35.6 °F 27.5 °F 26.2 °F 69% 30.22 in 10.0 mi NNW 11.5 mph - N/A   Clear
12:15 PM 35.6 °F 29.9 °F 26.4 °F 69% 30.22 in 10.0 mi NNW 6.9 mph - N/A   Clear
12:55 PM 36.7 °F 29.4 °F 28.0 °F 71% 30.21 in 10.0 mi NNW 10.4 mph - N/A   Clear
1:15 PM 37.0 °F 30.4 °F 27.9 °F 69% 30.22 in 10.0 mi NW 9.2 mph - N/A   Clear
1:35 PM 37.4 °F 32.1 °F 27.9 °F 68% 30.22 in 10.0 mi NW 6.9 mph - N/A   Clear
2:15 PM 38.1 °F 31.7 °F 28.2 °F 68% 30.22 in 10.0 mi NNW 9.2 mph - N/A   Clear
2:35 PM 38.5 °F 31.6 °F 28.4 °F 67% 30.22 in 10.0 mi NNW 10.4 mph - N/A   Clear
2:55 PM 38.7 °F 32.4 °F 27.5 °F 64% 30.22 in 10.0 mi NNW 9.2 mph - N/A   Clear
3:15 PM 38.5 °F 31.1 °F 27.9 °F 66% 30.22 in 10.0 mi NNW 11.5 mph - N/A   Scattered Clouds
3:35 PM 37.2 °F 31.2 °F 28.8 °F 71% 30.23 in 10.0 mi NW 8.1 mph - N/A   Scattered Clouds
3:55 PM 38.5 °F 32.7 °F 28.6 °F 68% 30.24 in 10.0 mi NNW 8.1 mph - N/A   Clear
4:15 PM 37.8 °F 32.5 °F 28.6 °F 69% 30.24 in 10.0 mi NNW 6.9 mph - N/A   Clear
4:35 PM 37.6 °F 31.6 °F 28.6 °F 70% 30.25 in 10.0 mi NW 8.1 mph - N/A   Scattered Clouds
4:55 PM 37.4 °F 30.8 °F 28.4 °F 70% 30.26 in 10.0 mi NW 9.2 mph - N/A   Clear
5:15 PM 36.7 °F 30.5 °F 28.2 °F 71% 30.27 in 10.0 mi NNW 8.1 mph - N/A   Clear
5:35 PM 36.1 °F 29.9 °F 27.5 °F 71% 30.27 in 10.0 mi NNW 8.1 mph - N/A   Clear
5:55 PM 35.2 °F 26.2 °F 27.0 °F 72% 30.27 in 10.0 mi North 13.8 mph - N/A   Clear
6:15 PM 34.9 °F 27.1 °F 27.9 °F 76% 30.28 in 10.0 mi North 10.4 mph - N/A   Scattered Clouds
6:35 PM 34.7 °F 26.9 °F 28.0 °F 77% 30.28 in 10.0 mi North 10.4 mph - N/A   Mostly Cloudy
6:55 PM 32.9 °F 27.5 °F 27.3 °F 80% 30.29 in 10.0 mi North 5.8 mph - N/A   Scattered Clouds
7:15 PM 32.0 °F 27.5 °F 26.4 °F 80% 30.29 in 10.0 mi NNE 4.6 mph - N/A   Clear
7:35 PM 30.7 °F - 26.1 °F 83% 30.30 in 10.0 mi Calm Calm - N/A   Scattered Clouds
7:55 PM 29.5 °F - 25.7 °F 86% 30.30 in 10.0 mi Calm Calm - N/A   Mostly Cloudy
8:15 PM 28.4 °F - 25.3 °F 88% 30.30 in 10.0 mi Calm Calm - N/A   Scattered Clouds
8:35 PM 28.8 °F 25.0 °F 25.3 °F 87% 30.30 in 10.0 mi NE 3.5 mph - N/A   Scattered Clouds
8:55 PM 28.8 °F - 24.4 °F 84% 30.32 in 10.0 mi Calm Calm - N/A   Clear
9:15 PM 27.5 °F - 24.3 °F 88% 30.33 in 10.0 mi Calm Calm - N/A   Clear
9:35 PM 26.2 °F - 24.1 °F 92% 30.34 in 10.0 mi Calm Calm - N/A   Clear
9:55 PM 27.7 °F - 24.3 °F 87% 30.35 in 10.0 mi Calm Calm - N/A   Clear
10:15 PM 25.2 °F - 22.5 °F 89% 30.36 in 10.0 mi Calm Calm - N/A   Clear
10:55 PM 26.4 °F - 23.9 °F 90% 30.36 in 10.0 mi Calm Calm - N/A   Mostly Cloudy
11:15 PM 26.6 °F - 24.1 °F 90% 30.36 in 10.0 mi Calm Calm - N/A   Scattered Clouds
11:35 PM 24.8 °F - 22.1 °F 89% 30.37 in 10.0 mi Calm Calm - N/A   Clear